TimePDT,TemperatureF,Dew PointF,Humidity,Sea Level PressureIn,VisibilityMPH,Wind Direction,Wind SpeedMPH,Gust SpeedMPH,PrecipitationIn,Events,Conditions,WindDirDegrees,DateUTC
12:52 AM,77.0,50.0,39,29.65,10.0,South,10.4,-,N/A,,Clear,190,2013-05-28 07:52:00
1:52 AM,75.9,51.1,42,29.63,10.0,SSW,4.6,-,N/A,,Clear,200,2013-05-28 08:52:00
2:52 AM,75.0,50.0,41,29.63,10.0,SW,5.8,-,N/A,,Clear,220,2013-05-28 09:52:00
3:52 AM,72.0,46.0,40,29.63,10.0,NNE,3.5,-,N/A,,Clear,20,2013-05-28 10:52:00
4:52 AM,70.0,48.0,46,29.63,10.0,NNW,3.5,-,N/A,,Clear,330,2013-05-28 11:52:00
5:52 AM,68.0,46.9,47,29.63,10.0,NE,3.5,-,N/A,,Clear,40,2013-05-28 12:52:00
6:52 AM,71.1,48.9,45,29.64,10.0,Calm,Calm,-,N/A,,Clear,0,2013-05-28 13:52:00
7:52 AM,75.0,50.0,41,29.65,10.0,NNE,4.6,-,N/A,,Clear,30,2013-05-28 14:52:00
8:52 AM,79.0,50.0,36,29.65,10.0,Calm,Calm,-,N/A,,Clear,0,2013-05-28 15:52:00
9:52 AM,84.9,43.0,23,29.65,10.0,ENE,5.8,-,N/A,,Clear,60,2013-05-28 16:52:00
10:52 AM,87.1,41.0,20,29.64,10.0,Calm,Calm,-,N/A,,Clear,0,2013-05-28 17:52:00
11:52 AM,89.1,42.1,19,29.63,10.0,Variable,6.9,-,N/A,,Clear,0,2013-05-28 18:52:00
12:52 PM,90.0,39.9,17,29.62,10.0,Variable,3.5,-,N/A,,Clear,0,2013-05-28 19:52:00
1:52 PM,91.0,42.1,18,29.59,10.0,South,6.9,-,N/A,,Clear,180,2013-05-28 20:52:00
2:52 PM,93.9,41.0,16,29.56,10.0,South,9.2,-,N/A,,Clear,190,2013-05-28 21:52:00
3:52 PM,95.0,43.0,17,29.55,10.0,WNW,8.1,-,N/A,,Clear,290,2013-05-28 22:52:00
4:52 PM,96.1,42.1,15,29.52,10.0,South,11.5,-,N/A,,Clear,180,2013-05-28 23:52:00
5:52 PM,95.0,41.0,15,29.51,10.0,West,6.9,-,N/A,,Clear,270,2013-05-29 00:52:00
6:52 PM,93.9,42.1,17,29.51,10.0,South,5.8,-,N/A,,Clear,190,2013-05-29 01:52:00
7:52 PM,91.9,44.1,19,29.52,10.0,SSW,13.8,-,N/A,,Clear,210,2013-05-29 02:52:00
8:52 PM,90.0,44.1,20,29.53,10.0,SSW,12.7,-,N/A,,Clear,210,2013-05-29 03:52:00
9:52 PM,89.1,37.9,16,29.55,6.0,WSW,15.0,-,N/A,,Haze,240,2013-05-29 04:52:00
10:52 PM,84.9,37.9,19,29.56,8.0,NW,3.5,-,N/A,,Clear,310,2013-05-29 05:52:00
11:52 PM,84.0,36.0,18,29.57,6.0,WSW,8.1,-,N/A,,Haze,250,2013-05-29 06:52:00